Location: Artiguedieu
(43.5000°N, 0.5454°E)
Time: 09:44:07
(UTC+00:00)

Vanguard 1 Rocket - Pass Details

Date: 06 August 2021
Orbit: 650 x 4226 km, 34.3° (Epoch: 24 September)

Event Time Altitude Azimuth Distance (km) Brightness Sun altitude
Rises 05:29:32 0° 195° (SSW) 8,255 11.9 5.4°
Reaches altitude 10° 05:37:07 10° 184° (S) 7,401 11.8 6.7°
Maximum altitude 05:55:10 25° 140° (SE) 5,880 12.0 9.8°
Drops below altitude 10° 06:09:50 10° 95° (E) 6,090 13.5 12.4°
Sets 06:14:59 0° 83° (E) 6,606 13.8 13.4°
